Creek Data

    Home     View Charts     View Raw Data     Messages

ID Distance Battery Voltage Battery Current Internal Temp Internal Humidity External Temp Solar Input rssi snr Time Stamp Record
65866 15.0 3.96 35 48 48 48 4.5 -81 8 02/10/2026 08:30 AM 48668
65865 15.0 3.88 0 46 48 47 4.5 -82 8 02/10/2026 08:15 AM 48667
65864 15.0 3.94 0 44 48 46 4.5 -81 7 02/10/2026 08:00 AM 48666
65863 15.0 3.85 -7 43 49 44 4.5 -80 7 02/10/2026 07:45 AM 48665
65862 15.0 3.91 -10 42 49 43 4.1 -80 7 02/10/2026 07:30 AM 48664
65861 15.1 3.85 -10 41 50 42 4.2 -80 8 02/10/2026 07:15 AM 48663
65860 15.1 3.92 -5 41 50 43 1.2 -82 8 02/10/2026 07:00 AM 48662
65859 15.1 3.92 -5 41 50 42 0 -89 7 02/10/2026 06:30 AM 48660
65858 15.1 3.86 -5 41 50 42 0 -78 9 02/10/2026 06:15 AM 48659
65857 15.1 3.86 -5 41 50 43 0 -76 8 02/10/2026 06:00 AM 48658
65856 15.1 3.92 -5 41 50 41 0 -76 8 02/10/2026 05:45 AM 48657
65855 15.1 3.86 -5 42 50 44 0.1 -77 8 02/10/2026 05:30 AM 48656
65854 15.1 3.87 -5 42 50 44 0 -76 8 02/10/2026 05:15 AM 48655
65853 15.0 3.86 -5 41 50 45 0 -76 8 02/10/2026 05:00 AM 48654
65852 15.1 3.87 -5 40 50 42 0 -76 8 02/10/2026 04:45 AM 48653
65851 15.1 3.93 -5 40 50 41 0 -76 9 02/10/2026 04:30 AM 48652
65850 15.1 3.87 -5 40 50 42 0 -76 9 02/10/2026 04:15 AM 48651
65849 15.1 3.93 -5 40 50 41 0 -77 9 02/10/2026 04:00 AM 48650
65848 15.1 3.87 -5 41 50 42 0 -76 9 02/10/2026 03:45 AM 48649
65847 15.1 3.87 -5 41 50 42 0 -76 8 02/10/2026 03:30 AM 48648
65846 15.1 3.93 -5 41 50 42 0 -76 8 02/10/2026 03:15 AM 48647
65845 15.1 3.87 -5 41 50 43 0.1 -76 8 02/10/2026 03:00 AM 48646
65844 15.1 3.93 -5 41 50 43 0 -76 8 02/10/2026 02:45 AM 48645
65843 15.0 3.87 -5 41 50 42 0 -76 8 02/10/2026 02:30 AM 48644
65842 15.1 3.87 -5 41 50 43 0.1 -76 8 02/10/2026 02:15 AM 48643